| time (UTC) | temp C | wind direction | speed KPH | gust KPH | rain 1hr cm | rain 24hr cm | rain mn cm | humidity % | barometer mb |
| 20260906044002 | 20 | 226 | 0.0 | 0.0 | 0.00 | 0.03 | 0.00 | 42 | 1013.3 |
| 20260906043503 | 20 | 226 | 0.0 | 0.0 | 0.00 | 0.03 | 0.00 | 42 | 1013.4 |
| 20260906043003 | 21 | 226 | 0.0 | 0.0 | 0.00 | 0.03 | 0.00 | 42 | 1013.1 |
| 20260906042501 | 21 | 226 | 0.0 | 0.0 | 0.00 | 0.03 | 0.00 | 42 | 1013.2 |
| 20260906042002 | 21 | 227 | 0.0 | 0.0 | 0.00 | 0.03 | 0.00 | 42 | 1013.1 |
| 20260906041501 | 21 | 302 | 0.0 | 0.0 | 0.00 | 0.03 | 0.00 | 41 | 1013.0 |
| 20260906041100 | 21 | 302 | 0.0 | 0.0 | 0.00 | 0.03 | 0.00 | 41 | 1013.1 |
| 20260906040659 | 21 | 302 | 0.0 | 0.0 | 0.00 | 0.03 | 0.00 | 41 | 1013.3 |
| 20260906040100 | 21 | 56 | 0.0 | 0.0 | 0.00 | 0.03 | 0.00 | 41 | 1013.3 |
| 20260906035558 | 21 | 56 | 0.0 | 0.0 | 0.00 | 0.03 | 0.00 | 41 | 1013.2 |
| 20260906035057 | 21 | 56 | 0.0 | 0.0 | 0.00 | 0.03 | 0.00 | 41 | 1013.5 |
| 20260906034557 | 21 | 25 | 0.0 | 0.0 | 0.00 | 0.03 | 0.00 | 41 | 1013.6 |
| 20260906034059 | 21 | 25 | 0.0 | 0.0 | 0.00 | 0.03 | 0.00 | 40 | 1013.7 |
| 20260906033555 | 21 | 25 | 0.0 | 0.0 | 0.00 | 0.03 | 0.00 | 40 | 1013.7 |
| 20260906033053 | 21 | 25 | 0.0 | 0.0 | 0.00 | 0.03 | 0.00 | 41 | 1013.7 |
| 20260906032553 | 21 | 25 | 0.0 | 0.0 | 0.00 | 0.03 | 0.00 | 41 | 1013.8 |
| 20260906032052 | 21 | 25 | 0.0 | 0.0 | 0.00 | 0.03 | 0.00 | 41 | 1013.9 |
| 20260906031554 | 21 | 25 | 0.0 | 0.0 | 0.00 | 0.03 | 0.00 | 41 | 1013.9 |
| 20260906031051 | 21 | 25 | 0.0 | 0.0 | 0.00 | 0.03 | 0.00 | 40 | 1013.7 |
| 20260906030650 | 21 | 25 | 0.0 | 0.0 | 0.00 | 0.03 | 0.00 | 41 | 1013.6 |
| 20260906030056 | 21 | 25 | 0.0 | 0.0 | 0.00 | 0.03 | 0.00 | 41 | 1013.7 |
| 20260906025547 | 21 | 58 | 0.0 | 0.0 | 0.00 | 0.03 | 0.00 | 41 | 1013.6 |
| 20260906025047 | 21 | 131 | 0.0 | 3.2 | 0.00 | 0.03 | 0.00 | 40 | 1013.5 |
| 20260906024544 | 21 | 131 | 0.0 | 3.2 | 0.00 | 0.03 | 0.00 | 40 | 1013.5 |
| 20260906024045 | 21 | 49 | 0.0 | 1.6 | 0.00 | 0.03 | 0.00 | 40 | 1013.4 |
| 20260906023544 | 21 | 291 | 0.0 | 0.0 | 0.00 | 0.03 | 0.00 | 39 | 1013.4 |
| 20260906023042 | 21 | 291 | 0.0 | 0.0 | 0.00 | 0.03 | 0.00 | 40 | 1013.2 |
| 20260906022541 | 21 | 291 | 0.0 | 0.0 | 0.00 | 0.03 | 0.00 | 39 | 1013.2 |
| 20260906022042 | 21 | 291 | 0.0 | 0.0 | 0.00 | 0.03 | 0.00 | 39 | 1013.2 |
| 20260906021545 | 21 | 291 | 0.0 | 0.0 | 0.00 | 0.03 | 0.00 | 38 | 1013.1 |
| 20260906021038 | 22 | 291 | 0.0 | 0.0 | 0.00 | 0.03 | 0.00 | 38 | 1013.1 |
| 20260906020638 | 22 | 251 | 0.0 | 0.0 | 0.00 | 0.03 | 0.00 | 38 | 1013.0 |
| 20260906020038 | 22 | 251 | 0.0 | 0.0 | 0.00 | 0.03 | 0.00 | 38 | 1013.2 |
| 20260906015536 | 22 | 251 | 0.0 | 0.0 | 0.00 | 0.03 | 0.00 | 38 | 1013.1 |
| 20260906015036 | 22 | 251 | 0.0 | 0.0 | 0.00 | 0.03 | 0.00 | 38 | 1012.9 |
| 20260906014536 | 22 | 251 | 0.0 | 1.6 | 0.00 | 0.03 | 0.00 | 39 | 1012.9 |
| 20260906014034 | 22 | 251 | 0.0 | 1.6 | 0.00 | 0.03 | 0.00 | 38 | 1012.9 |
| 20260906013533 | 22 | 245 | 0.0 | 0.0 | 0.00 | 0.03 | 0.00 | 39 | 1012.8 |
| 20260906013032 | 22 | 245 | 0.0 | 0.0 | 0.00 | 0.03 | 0.00 | 39 | 1012.9 |
| 20260906012532 | 22 | 245 | 0.0 | 1.6 | 0.00 | 0.03 | 0.00 | 39 | 1012.7 |
| 20260906012029 | 22 | 245 | 0.0 | 1.6 | 0.00 | 0.03 | 0.00 | 39 | 1012.5 |
| 20260906011528 | 22 | 243 | 0.0 | 1.6 | 0.00 | 0.03 | 0.00 | 40 | 1012.4 |
| 20260906011029 | 22 | 243 | 0.0 | 1.6 | 0.00 | 0.03 | 0.00 | 41 | 1012.3 |
| 20260906010626 | 22 | 245 | 0.0 | 1.6 | 0.00 | 0.03 | 0.00 | 44 | 1012.2 |
| 20260906010025 | 22 | 245 | 0.0 | 0.0 | 0.00 | 0.03 | 0.00 | 44 | 1012.4 |
| 20260906005527 | 22 | 249 | 0.0 | 0.0 | 0.00 | 0.03 | 0.03 | 45 | 1012.4 |
| 20260906005024 | 22 | 252 | 0.0 | 0.0 | 0.00 | 0.03 | 0.03 | 48 | 1012.4 |
| 20260906004524 | 23 | 251 | 0.0 | 0.0 | 0.00 | 0.03 | 0.03 | 50 | 1012.2 |
| 20260906004022 | 23 | 251 | 0.0 | 0.0 | 0.00 | 0.03 | 0.03 | 51 | 1012.1 |
| 20260906003526 | 23 | 252 | 0.0 | 0.0 | 0.00 | 0.03 | 0.03 | 53 | 1012.0 |
| 20260906003021 | 23 | 252 | 0.0 | 0.0 | 0.00 | 0.03 | 0.03 | 55 | 1011.8 |
| 20260906002526 | 23 | 251 | 0.0 | 0.0 | 0.00 | 0.03 | 0.03 | 57 | 1011.8 |
| 20260906002021 | 23 | 251 | 0.0 | 0.0 | 0.00 | 0.03 | 0.03 | 61 | 1011.6 |
| 20260906001522 | 23 | 251 | 0.0 | 1.6 | 0.00 | 0.03 | 0.03 | 62 | 1011.5 |
| 20260906001020 | 23 | 251 | 0.0 | 1.6 | 0.00 | 0.03 | 0.03 | 62 | 1011.6 |
| 20260906000620 | 23 | 250 | 0.0 | 4.8 | 0.00 | 0.03 | 0.03 | 63 | 1011.5 |
| 20260906000019 | 23 | 236 | 0.0 | 0.0 | 0.00 | 0.03 | 0.03 | 64 | 1011.4 |
| 20260905235520 | 24 | 229 | 0.0 | 0.0 | 0.00 | 0.03 | 0.03 | 65 | 1011.5 |
| 20260905235020 | 24 | 229 | 0.0 | 1.6 | 0.00 | 0.03 | 0.03 | 67 | 1011.4 |
| 20260905234519 | 24 | 231 | 0.0 | 1.6 | 0.00 | 0.03 | 0.03 | 66 | 1011.3 |
| 20260905234019 | 25 | 248 | 0.0 | 1.6 | 0.00 | 0.03 | 0.03 | 66 | 1011.3 |
| 20260905233518 | 25 | 268 | 0.0 | 4.8 | 0.00 | 0.03 | 0.03 | 66 | 1011.2 |
| 20260905233025 | 25 | 232 | 1.6 | 4.8 | 0.00 | 0.03 | 0.03 | 66 | 1011.2 |
| 20260905232521 | 25 | 242 | 0.0 | 3.2 | 0.00 | 0.03 | 0.03 | 66 | 1011.2 |
| 20260905232019 | 26 | 252 | 0.0 | 4.8 | 0.00 | 0.03 | 0.03 | 65 | 1011.1 |
| 20260905231516 | 26 | 243 | 0.0 | 4.8 | 0.00 | 0.03 | 0.03 | 64 | 1011.0 |
| 20260905231015 | 26 | 226 | 0.0 | 4.8 | 0.00 | 0.03 | 0.03 | 64 | 1010.9 |
| 20260905230616 | 27 | 232 | 1.6 | 4.8 | 0.00 | 0.03 | 0.03 | 63 | 1010.9 |
| 20260905230015 | 27 | 245 | 0.0 | 6.4 | 0.00 | 0.03 | 0.03 | 62 | 1010.8 |
| 20260905225513 | 27 | 249 | 1.6 | 6.4 | 0.00 | 0.03 | 0.03 | 61 | 1010.8 |
| 20260905225014 | 27 | 252 | 1.6 | 8.0 | 0.00 | 0.03 | 0.03 | 60 | 1010.8 |
| 20260905224513 | 27 | 215 | 3.2 | 8.0 | 0.00 | 0.03 | 0.03 | 59 | 1010.7 |
| 20260905224013 | 28 | 242 | 1.6 | 6.4 | 0.00 | 0.03 | 0.03 | 59 | 1010.8 |
| 20260905223515 | 28 | 246 | 3.2 | 8.0 | 0.00 | 0.03 | 0.03 | 58 | 1010.8 |
| 20260905223010 | 28 | 249 | 3.2 | 8.0 | 0.00 | 0.03 | 0.03 | 56 | 1010.9 |
| 20260905222511 | 28 | 257 | 0.0 | 4.8 | 0.00 | 0.03 | 0.03 | 56 | 1010.9 |
| 20260905222011 | 29 | 270 | 1.6 | 4.8 | 0.00 | 0.03 | 0.03 | 54 | 1011.0 |
| 20260905221509 | 30 | 259 | 1.6 | 4.8 | 0.00 | 0.03 | 0.03 | 50 | 1011.0 |
| 20260905221007 | 30 | 233 | 0.0 | 3.2 | 0.00 | 0.03 | 0.03 | 52 | 1011.0 |
| 20260905220608 | 30 | 252 | 0.0 | 4.8 | 0.00 | 0.03 | 0.03 | 51 | 1010.9 |
| 20260905220006 | 30 | 244 | 0.0 | 4.8 | 0.00 | 0.03 | 0.03 | 51 | 1011.0 |
| 20260905215505 | 30 | 248 | 1.6 | 4.8 | 0.00 | 0.03 | 0.03 | 50 | 1011.0 |
| 20260905215005 | 30 | 271 | 0.0 | 1.6 | 0.00 | 0.03 | 0.03 | 49 | 1011.1 |
| 20260905214505 | 30 | 255 | 0.0 | 3.2 | 0.00 | 0.03 | 0.03 | 50 | 1011.0 |
| 20260905214006 | 30 | 255 | 0.0 | 3.2 | 0.00 | 0.03 | 0.03 | 52 | 1011.0 |
| 20260905213503 | 30 | 250 | 0.0 | 4.8 | 0.00 | 0.03 | 0.03 | 52 | 1011.2 |
| 20260905213003 | 29 | 266 | 0.0 | 4.8 | 0.00 | 0.03 | 0.03 | 53 | 1011.1 |
| 20260905212501 | 29 | 224 | 0.0 | 4.8 | 0.00 | 0.03 | 0.03 | 53 | 1011.0 |
| 20260905212000 | 30 | 173 | 0.0 | 4.8 | 0.00 | 0.03 | 0.03 | 52 | 1011.3 |
| 20260905211602 | 29 | 261 | 0.0 | 3.2 | 0.00 | 0.03 | 0.03 | 52 | 1011.3 |
| 20260905211059 | 28 | 238 | 0.0 | 3.2 | 0.00 | 0.03 | 0.03 | 51 | 1011.4 |
| 20260905210559 | 28 | 244 | 0.0 | 4.8 | 0.00 | 0.03 | 0.03 | 49 | 1011.5 |
| 20260905210100 | 28 | 236 | 0.0 | 4.8 | 0.00 | 0.03 | 0.03 | 50 | 1011.5 |
| 20260905205559 | 28 | 143 | 0.0 | 4.8 | 0.00 | 0.05 | 0.03 | 51 | 1011.6 |
| 20260905205100 | 28 | 32 | 0.0 | 4.8 | 0.00 | 0.05 | 0.03 | 54 | 1011.5 |
| 20260905204557 | 27 | 141 | 0.0 | 1.6 | 0.00 | 0.05 | 0.03 | 53 | 1011.7 |
| 20260905204056 | 27 | 211 | 0.0 | 1.6 | 0.00 | 0.05 | 0.03 | 55 | 1011.8 |
| 20260905203557 | 27 | 297 | 0.0 | 1.6 | 0.00 | 0.05 | 0.03 | 56 | 1011.8 |
| 20260905203055 | 27 | 265 | 0.0 | 0.0 | 0.00 | 0.05 | 0.03 | 59 | 1012.0 |
| 20260905202555 | 26 | 265 | 0.0 | 0.0 | 0.00 | 0.05 | 0.03 | 58 | 1012.0 |
| 20260905202053 | 26 | 265 | 0.0 | 0.0 | 0.00 | 0.05 | 0.03 | 58 | 1012.1 |
| 20260905201551 | 26 | 265 | 0.0 | 6.4 | 0.00 | 0.05 | 0.03 | 59 | 1012.2 |
| 20260905201051 | 25 | 205 | 0.0 | 8.0 | 0.00 | 0.05 | 0.03 | 59 | 1012.2 |
| 20260905200550 | 25 | 272 | 1.6 | 8.0 | 0.00 | 0.05 | 0.03 | 60 | 1012.3 |
| 20260905200054 | 25 | 240 | 1.6 | 9.7 | 0.00 | 0.05 | 0.03 | 61 | 1012.4 |
| 20260905195548 | 25 | 223 | 3.2 | 9.7 | 0.00 | 0.05 | 0.03 | 61 | 1012.4 |
| 20260905195048 | 25 | 255 | 3.2 | 8.0 | 0.00 | 0.05 | 0.03 | 63 | 1012.4 |
| 20260905194555 | 25 | 245 | 3.2 | 9.7 | 0.00 | 0.05 | 0.03 | 63 | 1012.3 |
| 20260905194048 | 25 | 242 | 0.0 | 9.7 | 0.00 | 0.05 | 0.03 | 63 | 1012.3 |
| 20260905193547 | 25 | 238 | 3.2 | 6.4 | 0.00 | 0.05 | 0.03 | 63 | 1012.4 |
| 20260905193046 | 25 | 247 | 3.2 | 6.4 | 0.00 | 0.05 | 0.03 | 62 | 1012.6 |
| 20260905192546 | 25 | 231 | 1.6 | 9.7 | 0.00 | 0.05 | 0.03 | 62 | 1012.6 |
| 20260905192045 | 25 | 214 | 4.8 | 9.7 | 0.00 | 0.05 | 0.03 | 60 | 1012.6 |
| 20260905191547 | 26 | 334 | 4.8 | 14.5 | 0.00 | 0.05 | 0.03 | 54 | 1012.7 |
| 20260905191045 | 26 | 21 | 1.6 | 14.5 | 0.00 | 0.05 | 0.03 | 54 | 1012.5 |
| 20260905190544 | 25 | 315 | 0.0 | 11.3 | 0.00 | 0.05 | 0.03 | 56 | 1012.7 |
| 20260905190044 | 25 | 323 | 1.6 | 11.3 | 0.03 | 0.05 | 0.03 | 56 | 1012.6 |
| 20260905185547 | 25 | 250 | 3.2 | 11.3 | 0.03 | 0.05 | 0.03 | 58 | 1012.8 |
| 20260905185043 | 25 | 96 | 0.0 | 6.4 | 0.03 | 0.05 | 0.03 | 61 | 1012.6 |
| 20260905184558 | 25 | 65 | 1.6 | 6.4 | 0.03 | 0.05 | 0.03 | 60 | 1012.6 |
| 20260905184042 | 25 | 314 | 0.0 | 1.6 | 0.03 | 0.05 | 0.03 | 61 | 1012.8 |
| 20260905183544 | 25 | 314 | 0.0 | 8.0 | 0.03 | 0.05 | 0.03 | 59 | 1012.5 |
| 20260905183042 | 25 | 270 | 1.6 | 6.4 | 0.03 | 0.05 | 0.03 | 60 | 1012.8 |
| 20260905182543 | 24 | 298 | 0.0 | 6.4 | 0.03 | 0.05 | 0.03 | 64 | 1012.8 |
| 20260905182043 | 24 | 63 | 0.0 | 11.3 | 0.03 | 0.05 | 0.03 | 62 | 1012.3 |
| 20260905181538 | 24 | 82 | 4.8 | 11.3 | 0.03 | 0.05 | 0.03 | 62 | 1012.3 |
| 20260905181041 | 24 | 46 | 4.8 | 14.5 | 0.03 | 0.05 | 0.03 | 64 | 1012.3 |
| 20260905180538 | 26 | 46 | 8.0 | 22.5 | 0.03 | 0.05 | 0.03 | 59 | 1012.5 |
| 20260905180035 | 26 | 50 | 8.0 | 22.5 | 0.03 | 0.05 | 0.03 | 60 | 1012.5 |
| 20260905175533 | 26 | 326 | 8.0 | 45.1 | 0.00 | 0.03 | 0.00 | 55 | 1012.8 |
| 20260905175033 | 27 | 22 | 9.7 | 45.1 | 0.00 | 0.03 | 0.00 | 52 | 1014.0 |
| 20260905174537 | 30 | 229 | 12.9 | 35.4 | 0.00 | 0.03 | 0.00 | 46 | 1014.2 |
| 20260905174033 | 31 | 275 | 3.2 | 11.3 | 0.00 | 0.03 | 0.00 | 48 | 1014.2 |
| 20260905173530 | 31 | 45 | 4.8 | 16.1 | 0.00 | 0.03 | 0.00 | 46 | 1013.5 |
| 20260905173030 | 31 | 42 | 4.8 | 24.1 | 0.00 | 0.03 | 0.00 | 44 | 1013.3 |
| 20260905172530 | 32 | 39 | 9.7 | 25.7 | 0.00 | 0.03 | 0.00 | 42 | 1013.4 |
| 20260905172032 | 32 | 32 | 6.4 | 16.1 | 0.00 | 0.03 | 0.00 | 41 | 1013.4 |
| 20260905171528 | 33 | 44 | 8.0 | 16.1 | 0.00 | 0.03 | 0.00 | 40 | 1013.4 |
| 20260905171027 | 33 | 48 | 4.8 | 11.3 | 0.00 | 0.03 | 0.00 | 41 | 1013.3 |
| 20260905170527 | 34 | 321 | 3.2 | 12.9 | 0.00 | 0.03 | 0.00 | 40 | 1013.2 |
| 20260905170026 | 34 | 254 | 3.2 | 12.9 | 0.00 | 0.03 | 0.00 | 41 | 1013.3 |
| 20260905165524 | 33 | 271 | 1.6 | 12.9 | 0.00 | 0.03 | 0.00 | 43 | 1013.3 |
| 20260905165024 | 33 | 164 | 3.2 | 17.7 | 0.00 | 0.03 | 0.00 | 43 | 1013.4 |
| 20260905164523 | 33 | 353 | 4.8 | 16.1 | 0.00 | 0.03 | 0.00 | 42 | 1013.4 |
| 20260905164022 | 33 | 35 | 4.8 | 14.5 | 0.00 | 0.03 | 0.00 | 40 | 1013.5 |
| 20260905163521 | 33 | 319 | 6.4 | 14.5 | 0.00 | 0.03 | 0.00 | 41 | 1013.5 |
| 20260905163021 | 33 | 359 | 3.2 | 14.5 | 0.00 | 0.03 | 0.00 | 42 | 1013.6 |
| 20260905162521 | 33 | 23 | 4.8 | 16.1 | 0.00 | 0.03 | 0.00 | 43 | 1013.7 |
| 20260905162019 | 33 | 288 | 3.2 | 12.9 | 0.00 | 0.03 | 0.00 | 41 | 1013.6 |
| 20260905161518 | 33 | 269 | 3.2 | 12.9 | 0.00 | 0.03 | 0.00 | 41 | 1013.8 |
| 20260905161018 | 33 | 15 | 3.2 | 12.9 | 0.00 | 0.03 | 0.00 | 43 | 1013.9 |
| 20260905160516 | 33 | 352 | 4.8 | 17.7 | 0.00 | 0.03 | 0.00 | 43 | 1014.0 |
| 20260905160027 | 33 | 314 | 4.8 | 17.7 | 0.00 | 0.03 | 0.00 | 43 | 1014.0 |
| 20260905155514 | 33 | 352 | 6.4 | 17.7 | 0.00 | 0.03 | 0.00 | 43 | 1014.1 |
| 20260905155012 | 32 | 36 | 6.4 | 19.3 | 0.00 | 0.03 | 0.00 | 46 | 1014.1 |
| 20260905154510 | 32 | 51 | 11.3 | 20.9 | 0.00 | 0.03 | 0.00 | 46 | 1014.1 |
| 20260905154011 | 32 | 51 | 14.5 | 20.9 | 0.00 | 0.03 | 0.00 | 47 | 1014.2 |
| 20260905153511 | 31 | 45 | 6.4 | 20.9 | 0.00 | 0.03 | 0.00 | 48 | 1014.1 |
| 20260905153011 | 31 | 67 | 9.7 | 20.9 | 0.00 | 0.03 | 0.00 | 48 | 1014.0 |
| 20260905152507 | 31 | 272 | 0.0 | 1.6 | 0.00 | 0.03 | 0.00 | 46 | 1013.8 |
| 20260905152010 | 31 | 286 | 0.0 | 3.2 | 0.00 | 0.03 | 0.00 | 47 | 1013.8 |
| 20260905151504 | 31 | 274 | 0.0 | 4.8 | 0.00 | 0.03 | 0.00 | 45 | 1013.7 |
| 20260905151003 | 30 | 72 | 1.6 | 11.3 | 0.00 | 0.03 | 0.00 | 46 | 1014.0 |
| 20260905150502 | 31 | 66 | 0.0 | 6.4 | 0.00 | 0.03 | 0.00 | 43 | 1013.9 |
| 20260905150003 | 31 | 57 | 0.0 | 6.4 | 0.00 | 0.03 | 0.00 | 43 | 1013.9 |
| 20260905145600 | 30 | 43 | 3.2 | 9.7 | 0.00 | 0.03 | 0.00 | 46 | 1013.9 |
| 20260905145100 | 30 | 65 | 6.4 | 9.7 | 0.00 | 0.03 | 0.00 | 45 | 1014.0 |
| 20260905144559 | 30 | 53 | 0.0 | 9.7 | 0.00 | 0.03 | 0.00 | 44 | 1014.0 |
| 20260905144058 | 30 | 6 | 1.6 | 8.0 | 0.00 | 0.03 | 0.00 | 46 | 1014.1 |
| 20260905143600 | 30 | 57 | 0.0 | 8.0 | 0.00 | 0.03 | 0.00 | 46 | 1014.2 |
| 20260905143057 | 30 | 331 | 0.0 | 3.2 | 0.00 | 0.03 | 0.00 | 46 | 1014.3 |
| 20260905142553 | 29 | 41 | 0.0 | 3.2 | 0.00 | 0.03 | 0.00 | 47 | 1014.3 |
| 20260905142051 | 29 | 96 | 0.0 | 1.6 | 0.00 | 0.03 | 0.00 | 48 | 1014.3 |
| 20260905141608 | 28 | 95 | 0.0 | 1.6 | 0.00 | 0.03 | 0.00 | 47 | 1014.2 |
| 20260905141047 | 28 | 235 | 0.0 | 1.6 | 0.00 | 0.03 | 0.00 | 48 | 1014.3 |
| 20260905140546 | 27 | 263 | 0.0 | 1.6 | 0.00 | 0.03 | 0.00 | 49 | 1014.3 |
| 20260905135545 | 27 | 64 | 0.0 | 1.6 | 0.00 | 0.03 | 0.00 | 50 | 1014.4 |
| 20260905135043 | 27 | 41 | 0.0 | 1.6 | 0.00 | 0.03 | 0.00 | 51 | 1014.2 |
| 20260905134554 | 26 | 72 | 0.0 | 6.4 | 0.00 | 0.03 | 0.00 | 51 | 1014.4 |
| 20260905134042 | 26 | 63 | 1.6 | 6.4 | 0.00 | 0.03 | 0.00 | 51 | 1014.4 |
| 20260905133538 | 26 | 233 | 0.0 | 1.6 | 0.00 | 0.03 | 0.00 | 51 | 1014.4 |
| 20260905133051 | 26 | 233 | 0.0 | 1.6 | 0.00 | 0.03 | 0.00 | 52 | 1014.5 |
| 20260905132536 | 25 | 233 | 0.0 | 1.6 | 0.00 | 0.03 | 0.00 | 53 | 1014.4 |
| 20260905132035 | 25 | 233 | 0.0 | 1.6 | 0.00 | 0.03 | 0.00 | 53 | 1014.5 |
| 20260905131549 | 25 | 233 | 0.0 | 3.2 | 0.00 | 0.03 | 0.00 | 53 | 1014.7 |
| 20260905131036 | 25 | 233 | 0.0 | 3.2 | 0.00 | 0.03 | 0.00 | 52 | 1014.8 |
| 20260905130532 | 24 | 151 | 0.0 | 3.2 | 0.00 | 0.03 | 0.00 | 52 | 1014.9 |
| 20260905125531 | 23 | 238 | 0.0 | 0.0 | 0.00 | 0.03 | 0.00 | 51 | 1015.0 |
| 20260905125030 | 23 | 179 | 0.0 | 0.0 | 0.00 | 0.03 | 0.00 | 49 | 1015.1 |
| 20260905124529 | 23 | 238 | 0.0 | 0.0 | 0.00 | 0.03 | 0.00 | 47 | 1015.1 |
| 20260905124027 | 23 | 238 | 0.0 | 0.0 | 0.00 | 0.03 | 0.00 | 47 | 1015.1 |
| 20260905123527 | 23 | 238 | 0.0 | 0.0 | 0.00 | 0.03 | 0.00 | 45 | 1015.1 |
| 20260905123028 | 22 | 238 | 0.0 | 0.0 | 0.00 | 0.03 | 0.00 | 45 | 1015.0 |
| 20260905122525 | 22 | 238 | 0.0 | 0.0 | 0.00 | 0.03 | 0.00 | 44 | 1015.0 |
| 20260905122026 | 22 | 238 | 0.0 | 0.0 | 0.00 | 0.03 | 0.00 | 39 | 1015.0 |
| 20260905121524 | 21 | 238 | 0.0 | 0.0 | 0.00 | 0.03 | 0.00 | 41 | 1014.9 |
| 20260905121027 | 21 | 238 | 0.0 | 0.0 | 0.00 | 0.03 | 0.00 | 42 | 1014.9 |
| 20260905120527 | 21 | 235 | 0.0 | 0.0 | 0.00 | 0.03 | 0.00 | 42 | 1014.9 |
| 20260905115523 | 21 | 235 | 0.0 | 0.0 | 0.00 | 0.03 | 0.00 | 42 | 1014.8 |
| 20260905115023 | 21 | 242 | 0.0 | 0.0 | 0.00 | 0.03 | 0.00 | 42 | 1014.7 |
| 20260905114522 | 20 | 246 | 0.0 | 1.6 | 0.00 | 0.03 | 0.00 | 43 | 1014.6 |
| 20260905114021 | 20 | 244 | 0.0 | 3.2 | 0.00 | 0.03 | 0.00 | 43 | 1014.7 |
| 20260905113520 | 20 | 309 | 0.0 | 3.2 | 0.00 | 0.03 | 0.00 | 42 | 1014.6 |
| 20260905113020 | 20 | 292 | 0.0 | 3.2 | 0.00 | 0.03 | 0.00 | 43 | 1014.6 |
| 20260905112518 | 20 | 256 | 0.0 | 0.0 | 0.00 | 0.03 | 0.00 | 43 | 1014.5 |
| 20260905112020 | 20 | 226 | 0.0 | 0.0 | 0.00 | 0.03 | 0.00 | 43 | 1014.3 |
| 20260905111517 | 20 | 233 | 0.0 | 0.0 | 0.00 | 0.03 | 0.00 | 42 | 1014.3 |
| 20260905111017 | 20 | 252 | 0.0 | 0.0 | 0.00 | 0.03 | 0.00 | 43 | 1014.2 |
| 20260905110515 | 20 | 236 | 0.0 | 0.0 | 0.00 | 0.03 | 0.00 | 42 | 1014.2 |
| 20260905105516 | 20 | 259 | 0.0 | 0.0 | 0.00 | 0.03 | 0.00 | 42 | 1014.1 |
| 20260905105013 | 20 | 256 | 0.0 | 0.0 | 0.00 | 0.03 | 0.00 | 43 | 1013.9 |
| 20260905104513 | 20 | 243 | 0.0 | 0.0 | 0.00 | 0.03 | 0.00 | 43 | 1013.9 |
| 20260905104012 | 20 | 250 | 0.0 | 0.0 | 0.00 | 0.03 | 0.00 | 42 | 1013.8 |
| 20260905103511 | 20 | 250 | 0.0 | 0.0 | 0.00 | 0.03 | 0.00 | 42 | 1013.9 |
| 20260905103017 | 20 | 259 | 0.0 | 0.0 | 0.00 | 0.03 | 0.00 | 42 | 1013.8 |
| 20260905102510 | 20 | 259 | 0.0 | 0.0 | 0.00 | 0.03 | 0.00 | 42 | 1013.8 |
| 20260905102008 | 20 | 260 | 0.0 | 0.0 | 0.00 | 0.03 | 0.00 | 42 | 1013.7 |
| 20260905101514 | 20 | 261 | 0.0 | 0.0 | 0.00 | 0.03 | 0.00 | 42 | 1013.8 |
| 20260905101006 | 20 | 264 | 0.0 | 0.0 | 0.00 | 0.03 | 0.00 | 42 | 1013.6 |
| 20260905100506 | 20 | 244 | 0.0 | 1.6 | 0.00 | 0.03 | 0.00 | 42 | 1013.7 |
| 20260905095504 | 20 | 242 | 0.0 | 3.2 | 0.00 | 0.03 | 0.00 | 43 | 1013.7 |
| 20260905095004 | 20 | 235 | 0.0 | 3.2 | 0.00 | 0.03 | 0.00 | 42 | 1013.7 |
| 20260905094503 | 20 | 238 | 0.0 | 0.0 | 0.00 | 0.03 | 0.00 | 42 | 1013.7 |
| 20260905094002 | 20 | 238 | 0.0 | 0.0 | 0.00 | 0.03 | 0.00 | 42 | 1013.7 |
| 20260905093502 | 20 | 236 | 0.0 | 0.0 | 0.00 | 0.03 | 0.00 | 42 | 1013.6 |
| 20260905093002 | 20 | 236 | 0.0 | 0.0 | 0.00 | 0.03 | 0.00 | 41 | 1013.6 |
| 20260905092501 | 21 | 236 | 0.0 | 0.0 | 0.00 | 0.03 | 0.00 | 41 | 1013.7 |
| 20260905092059 | 21 | 236 | 0.0 | 0.0 | 0.00 | 0.03 | 0.00 | 41 | 1013.7 |
| 20260905091615 | 21 | 236 | 0.0 | 0.0 | 0.00 | 0.03 | 0.00 | 41 | 1013.6 |
| 20260905091100 | 21 | 236 | 0.0 | 0.0 | 0.00 | 0.03 | 0.00 | 41 | 1013.6 |
| 20260905090557 | 21 | 236 | 0.0 | 0.0 | 0.00 | 0.03 | 0.00 | 42 | 1013.8 |
| 20260905085558 | 21 | 248 | 0.0 | 0.0 | 0.00 | 0.03 | 0.00 | 41 | 1013.9 |
| 20260905085058 | 21 | 248 | 0.0 | 0.0 | 0.00 | 0.03 | 0.00 | 41 | 1013.9 |
| 20260905084555 | 21 | 252 | 0.0 | 0.0 | 0.00 | 0.03 | 0.00 | 41 | 1013.9 |
| 20260905084055 | 21 | 208 | 0.0 | 0.0 | 0.00 | 0.03 | 0.00 | 41 | 1014.0 |
| 20260905083556 | 21 | 198 | 0.0 | 0.0 | 0.00 | 0.03 | 0.00 | 41 | 1014.0 |
| 20260905083052 | 21 | 182 | 0.0 | 0.0 | 0.00 | 0.03 | 0.00 | 41 | 1014.2 |
| 20260905082551 | 21 | 181 | 0.0 | 0.0 | 0.00 | 0.03 | 0.00 | 41 | 1014.2 |
| 20260905082051 | 21 | 181 | 0.0 | 0.0 | 0.00 | 0.03 | 0.00 | 41 | 1014.2 |
| 20260905081550 | 21 | 181 | 0.0 | 0.0 | 0.00 | 0.03 | 0.00 | 41 | 1014.2 |
| 20260905081049 | 21 | 181 | 0.0 | 0.0 | 0.00 | 0.03 | 0.00 | 41 | 1014.1 |
| 20260905080548 | 21 | 73 | 0.0 | 0.0 | 0.00 | 0.03 | 0.00 | 40 | 1014.3 |
| 20260905075547 | 21 | 73 | 0.0 | 0.0 | 0.00 | 0.03 | 0.00 | 40 | 1014.3 |
| 20260905075045 | 21 | 73 | 0.0 | 0.0 | 0.00 | 0.03 | 0.00 | 40 | 1014.5 |
| 20260905074555 | 21 | 73 | 0.0 | 0.0 | 0.00 | 0.03 | 0.00 | 40 | 1014.5 |
| 20260905074044 | 21 | 73 | 0.0 | 0.0 | 0.00 | 0.03 | 0.00 | 40 | 1014.5 |
| 20260905073543 | 21 | 73 | 0.0 | 0.0 | 0.00 | 0.03 | 0.00 | 40 | 1014.5 |
| 20260905073058 | 21 | 73 | 0.0 | 0.0 | 0.00 | 0.03 | 0.00 | 40 | 1014.6 |
| 20260905072542 | 21 | 73 | 0.0 | 0.0 | 0.00 | 0.03 | 0.00 | 39 | 1014.6 |
| 20260905072041 | 21 | 73 | 0.0 | 0.0 | 0.00 | 0.03 | 0.00 | 39 | 1014.6 |
| 20260905071540 | 21 | 73 | 0.0 | 0.0 | 0.00 | 0.03 | 0.00 | 39 | 1014.6 |
| 20260905071044 | 21 | 73 | 0.0 | 0.0 | 0.00 | 0.03 | 0.00 | 39 | 1014.6 |
| 20260905070538 | 21 | 73 | 0.0 | 0.0 | 0.00 | 0.03 | 0.00 | 39 | 1014.7 |
| 20260905065537 | 21 | 73 | 0.0 | 0.0 | 0.00 | 0.03 | 0.00 | 38 | 1014.7 |
| 20260905065041 | 21 | 73 | 0.0 | 0.0 | 0.00 | 0.03 | 0.00 | 38 | 1014.8 |
| 20260905064536 | 21 | 73 | 0.0 | 0.0 | 0.00 | 0.03 | 0.00 | 38 | 1014.8 |
| 20260905064035 | 21 | 73 | 0.0 | 0.0 | 0.00 | 0.03 | 0.00 | 38 | 1014.7 |
| 20260905063538 | 21 | 73 | 0.0 | 0.0 | 0.00 | 0.03 | 0.00 | 38 | 1014.8 |
| 20260905063033 | 21 | 73 | 0.0 | 0.0 | 0.00 | 0.03 | 0.00 | 37 | 1014.8 |
| 20260905062532 | 21 | 73 | 0.0 | 0.0 | 0.00 | 0.03 | 0.00 | 37 | 1014.9 |
| 20260905062034 | 22 | 73 | 0.0 | 0.0 | 0.00 | 0.03 | 0.00 | 37 | 1015.1 |
| 20260905061531 | 22 | 73 | 0.0 | 0.0 | 0.00 | 0.03 | 0.00 | 37 | 1015.0 |
| 20260905061029 | 22 | 73 | 0.0 | 0.0 | 0.00 | 0.03 | 0.00 | 37 | 1015.2 |
| 20260905060529 | 22 | 73 | 0.0 | 3.2 | 0.00 | 0.03 | 0.00 | 37 | 1015.3 |
| 20260905055529 | 22 | 79 | 0.0 | 3.2 | 0.00 | 0.03 | 0.00 | 37 | 1015.3 |
| 20260905055031 | 22 | 85 | 0.0 | 4.8 | 0.00 | 0.03 | 0.00 | 37 | 1015.5 |
| 20260905054528 | 22 | 65 | 1.6 | 4.8 | 0.00 | 0.03 | 0.00 | 37 | 1015.5 |
| 20260905054027 | 22 | 73 | 0.0 | 0.0 | 0.00 | 0.03 | 0.00 | 37 | 1015.5 |
| 20260905053526 | 22 | 73 | 0.0 | 0.0 | 0.00 | 0.03 | 0.00 | 37 | 1015.5 |
| 20260905053034 | 22 | 73 | 0.0 | 0.0 | 0.00 | 0.03 | 0.00 | 37 | 1015.5 |
| 20260905052524 | 22 | 73 | 0.0 | 0.0 | 0.00 | 0.03 | 0.00 | 38 | 1015.6 |
| 20260905052025 | 22 | 73 | 0.0 | 0.0 | 0.00 | 0.03 | 0.00 | 38 | 1015.6 |
| 20260905051524 | 22 | 73 | 0.0 | 0.0 | 0.00 | 0.03 | 0.00 | 38 | 1015.6 |
| 20260905051023 | 22 | 73 | 0.0 | 0.0 | 0.00 | 0.03 | 0.00 | 39 | 1015.6 |
| 20260905050525 | 22 | 73 | 0.0 | 1.6 | 0.00 | 0.03 | 0.00 | 40 | 1015.6 |
| 20260905045523 | 22 | 73 | 0.0 | 0.0 | 0.00 | 0.03 | 0.00 | 39 | 1015.6 |
| 20260905045019 | 22 | 72 | 0.0 | 0.0 | 0.00 | 0.03 | 0.00 | 39 | 1015.6 |
| 20260905044522 | 22 | 73 | 0.0 | 0.0 | 0.00 | 0.03 | 0.00 | 39 | 1015.5 |